Regional Weather Roundup
Issued by NWS

Home | Current Version | Previous Version | Graphics & Text | Print | Product List | Glossary On
Versions: 1 2 3 4 5 6 7 8 9 10 11 12 13 14 15 16 17 18 19 20 21 22 23 24 25 26 27 28 29 30 31 32 33 34 35 36 37 38 39 40 41 42 43 44 45 46 47 48 49 50
000
ASUS43 KDTX 241710
RWRMI
MICHIGAN HOURLY REGIONAL WEATHER ROUNDUP
NATIONAL WEATHER SERVICE DETROIT/PONTIAC MI
100 PM EDT THU JUL 24 2014

NOTE: "FAIR" INDICATES FEW OR NO CLOUDS BELOW 12,000 FEET WITH NO
SIGNIFICANT WEATHER AND/OR OBSTRUCTION TO VISIBILITY.

MIZ047>049-052>055-059>063-066>070-074>076-081>083-241800-
SOUTHEAST LOWER MICHIGAN

CITY           SKY/WX    TMP DP  RH WIND       PRES   REMARKS
ADRIAN         MOSUNNY   74  47  38 NE12G20   30.13S
ALMA           PTSUNNY   69  45  42 N7        30.14F
ANN ARBOR      PTSUNNY   71  46  40 NE9       30.12F
BAD AXE        MOSUNNY   69  47  45 N6        30.13F
CARO           CLOUDY    69  51  53 N9        30.13S
DETROIT CITY   PTSUNNY   72  50  45 NE7       30.12S
DETROIT        PTSUNNY   72  47  40 N9        30.12F
FLINT          CLOUDY    71  46  40 N7        30.13F
GROSSE ILE     PTSUNNY   70  48  46 NE8       30.11S
HILLSDALE      PTSUNNY   69  49  47 NE7       30.14F
HOWELL         PTSUNNY   67  46  46 N5        30.14F

CITY           SKY/WX    TMP DP  RH WIND       PRES   REMARKS
JACKSON        PTSUNNY   72  52  49 VRB5      30.14F
LAMBERTVILLE   CLOUDY    72  46  40 N6G17     30.12S
LANSING        PTSUNNY   68  49  50 NE7       30.14F
LAPEER         CLOUDY    69  47  46 N8        30.13F
MASON          MOSUNNY   68  49  50 NE3       30.14F
MONROE         PTSUNNY   72  48  43 NE8       30.10F
MT. CLEMENS    MOSUNNY   72  50  44 NE7       30.10F
PONTIAC        PTSUNNY   72  45  37 N10       30.12F
PORT HOPE        N/A     67  57  70 VRB3      30.13F
PORT HURON     PTSUNNY   68  52  56 N6        30.12F
TRI CITIES     PTSUNNY   70  49  47 N6        30.14F
TROY           PTSUNNY   70  47  43 N12       30.13S
SAGINAW HB     MOSUNNY   72  50  46 NE6       30.13F
$$
MIZ043>046-050>051-056>058-064>065-071>073-077>080-241800-
SOUTHWEST LOWER MICHIGAN

CITY           SKY/WX    TMP DP  RH WIND       PRES   REMARKS
BATTLE CREEK   MOSUNNY   71  48  43 N8        30.15F
BENTON HARBOR  MOSUNNY   68  53  58 NW8       30.16S
BIG RAPIDS     PTSUNNY   69  44  39 NW5       30.15S
COLDWATER      MOSUNNY   72  49  44 NE10      30.14F
FREMONT        FAIR      69  45  41 NE3       30.15F
HOLLAND        MOSUNNY   71  48  43 VRB6      30.16F
GRAND RAPIDS   MOSUNNY   72  51  47 E7        30.15F
IONIA          PTSUNNY   68  49  49 NW3       30.13F
KALAMAZOO      MOSUNNY   71  48  43 VRB5      30.14F
LUDINGTON      SUNNY     69  53  54 NW10G16   30.16F
MARSHALL       CLOUDY    67  49  51 N3        30.14S
MOUNT PLEASANT PTSUNNY   69  48  45 N5        30.14F
MUSKEGON       MOSUNNY   72  46  39 VRB3      30.16F
SOUTH HAVEN    MOSUNNY   69  56  62 NW10      30.16S
$$
MIZ016>042-241800-
NORTHERN LOWER MICHIGAN

CITY           SKY/WX    TMP DP  RH WIND       PRES   REMARKS
ALPENA         MOSUNNY   71  49  45 N10       30.12F
BEAVER ISLAND  MOSUNNY   68  52  57 W8        30.15S
BELLAIRE       SUNNY     69  48  46 W6        30.15S
CADILLAC       MOSUNNY   68  50  52 N9        30.15F
CHARLEVOIX     SUNNY     68  48  48 W12       30.19S
FRANKFORT      SUNNY     70  46  42 NW6       30.16F
GAYLORD        MOSUNNY   68  46  45 W7        30.15F
GRAYLING       MOSUNNY   69  46  43 N9        30.15F
HARBOR SPRINGS SUNNY     65  52  61 SW10      30.15S
HOUGHTON LAKE  PTSUNNY   70  44  39 N12       30.15F
MANISTEE       SUNNY     68  46  45 NW12      30.17S
OSCODA         PTSUNNY   72  44  35 NE13G24   30.12F
PELLSTON       SUNNY     70  50  49 NW10G16   30.14F
ROGERS CITY    SUNNY     68  56  65 N10       30.13F
TRAVERSE CITY  MOSUNNY   70  49  47 NE7       30.14F
$$
MIZ007>008-015-241800-
EASTERN UPPER MICHIGAN

CITY           SKY/WX    TMP DP  RH WIND       PRES   REMARKS
KINROSS        SUNNY     68  52  56 NW9       30.11F
MACKINAC ISLAN SUNNY     63  54  72 SW10      30.12F
NEWBERRY       SUNNY     69  50  50 W8        30.12F
S. S. MARIE    SUNNY     67  51  56 NW9       30.10F
MUNISING         N/A     69  50  50 N8        30.11F
$$
MIZ004>006-011>014-085-241800-
CENTRAL UPPER MICHIGAN

CITY           SKY/WX    TMP DP  RH WIND       PRES   REMARKS
MANISTIQUE     SUNNY     70  52  52 SW8       30.11F
ESCANABA       SUNNY     68  50  52 S12       30.13F
MENOMINEE      MOSUNNY   70  50  49 S10       30.14F
SAWYER-GWINN   SUNNY     70  46  43 SE7       30.13F
$$
MIZ001>003-009>011-084-241800-
WESTERN UPPER MICHIGAN

CITY           SKY/WX    TMP DP  RH WIND       PRES   REMARKS
IRON MOUNTAIN  SUNNY     72  47  40 VRB5      30.13F
HOUGHTON       SUNNY     70  49  47 W10       30.12F
COPPER HARBOR    N/A     67  52  58 N15       30.10S
IRONWOOD       MOSUNNY   72  52  49 NW5       30.11F
$$

ABBREVIATIONS USED IN REMARKS
   TC - TEMPERATURE IN CELSIUS
  WCI - WIND CHILL INDEX
   HX - HEAT INDEX
  VSB - VISIBILITY




USA.gov is the U.S. government's official web portal to all federal, state and local government web resources and services.